Puerto Limon, Costa Rica

5:54 AM CST on March 24, 2017 (GMT -0600)
Puerto Limon

Weather History for MRLM - January, 2014

Change the Weather History Date:

Friday, January 31, 2014

  Actual Average Record
Temperature  
Mean Temperature 76 °F -  
Max Temperature 85 °F 80 °F 86 °F (1998)
Min Temperature 68 °F 71 °F 64 °F (2011)
Cooling Degree Days 12    
Growing Degree Days 26 (Base 50)    
Moisture  
Dew Point 70 °F    
Average Humidity 79    
Maximum Humidity 94    
Minimum Humidity 54    
Precipitation  
Precipitation 0.47 in 0.26 in - ()
Sea Level Pressure  
Sea Level Pressure 29.90 in    
Wind  
Wind Speed 5 mph ()    
Max Wind Speed 17 mph    
Max Gust Speed -    
Visibility 6.7 miles    
Events Rain    
Averages and records for this station are not official NWS values.
T = Trace of Precipitation, MM = Missing Value Source: Averaged Metar Reports

Daily Weather History Graph

Daily Weather History Graph

Search for Another Location

Airport or City:

Trip Planner

Search our weather history database for the weather conditions in past years. The results will help you decide how hot, cold, wet, or windy it might be!

Date:

Astronomy

Jan. 31, 2014 Rise Set
Actual Time 5:54 AM CST 5:36 PM CST
Civil Twilight 5:32 AM CST 5:58 PM CST
Nautical Twilight 5:07 AM CST 6:23 PM CST
Astronomical Twilight 4:41 AM CST 6:49 PM CST
Moon 6:22 AM CST (1/31) 6:35 PM CST (1/31)
Length of Visible Light 12h 26m
Length of Day
11h 42m
New Moon, 1% of the Moon is Illuminated
Jan 31
New Moon
Feb 6
First Quarter
Feb 14
Full
Feb 22
Last Quarter
Mar 1
New

Hourly Weather History & Observations

Time (CST) Temp. Heat Index Dew Point Humidity Pressure Visibility Wind Dir Wind Speed Gust Speed Precip Events Conditions
6:00 AM 71 °F - 68 °F 89% 29.91 in 9 mi SW 5.8 mph - -   Overcast
6:00 AM 71.6 °F - 68.0 °F 88% 29.89 in 6.2 mi SW 5.8 mph - N/A   Overcast
7:00 AM 71.6 °F - 68.0 °F 88% 29.91 in 6.2 mi West 4.6 mph - N/A   Mostly Cloudy
8:00 AM 75.2 °F - 71.6 °F 89% 29.94 in 1.2 mi NE 17.3 mph - N/A Rain Heavy Rain
9:00 AM 72 °F - 70 °F 91% 29.96 in 8 mi WSW 4.6 mph - - Rain Light Drizzle
9:00 AM 71.6 °F - 69.8 °F 94% 29.95 in 6.2 mi WSW 4.6 mph - N/A   Drizzle
10:00 AM 75.2 °F - 71.6 °F 89% 29.95 in 6.2 mi WSW 6.9 mph - N/A   Mostly Cloudy
11:00 AM 78.8 °F - 69.8 °F 74% 29.93 in 6.2 mi WSW 6.9 mph - N/A   Mostly Cloudy
12:00 PM 83 °F - 69 °F 54% 29.91 in 9 mi WSW 3.5 mph - -   Overcast
12:00 PM 82.4 °F 86.3 °F 69.8 °F 66% 29.91 in 6.2 mi WSW 3.5 mph - N/A   Scattered Clouds
12:29 PM 78.8 °F - 69.8 °F 74% 29.89 in 6.2 mi East 6.9 mph - N/A   Drizzle
1:00 PM 75.2 °F - 69.8 °F 83% 29.89 in 6.2 mi NW 8.1 mph - N/A   Drizzle
2:00 PM 78.8 °F - 69.8 °F 74% 29.86 in 6.2 mi West 4.6 mph - N/A   Scattered Clouds
3:00 PM 78 °F - 70 °F 71% 29.87 in 9 mi WSW 5.8 mph - -   Mostly Cloudy
3:00 PM 78.8 °F - 69.8 °F 74% 29.85 in - WSW 5.8 mph - N/A   Clear
4:00 PM 80.6 °F 84.6 °F 71.6 °F 74% 29.85 in - WSW 2.3 mph - N/A   Clear
5:00 PM 77.0 °F - 69.8 °F 78% 29.85 in 6.2 mi SW 4.6 mph - N/A   Scattered Clouds
6:00 PM 79 °F - 69 °F 65% 29.88 in 9 mi ESE 6.9 mph - -   Overcast
6:00 PM 73.4 °F - 69.8 °F 88% 29.86 in 6.2 mi WSW 4.6 mph - N/A   Mostly Cloudy